Flag for Congo Weather past 2 weeks in Brazzaville, Congo

Now
79 °F

Thunderstorms. Passing clouds.


Feels Like: 82 °F
Forecast: 74 / 91 °F
Wind: 3 mph from West

Location: Brazzaville / Maya-Maya


UV Index: 3 (Moderate)

Visibility: 5 mi


Pressure: 29.89 "Hg

Humidity: 84%

Dew point: 73 °F

Location of BrazzavilleLocation

Historic Weather in Brazzaville

°F

Brazzaville temperature yesterday

Maximum temperature yesterday: 90 °F (at 4:00 PM)
Minimum temperature yesterday: 73 °F (at 4:00 AM)
Average temperature yesterday: 81 °F

Past Weeks' High & Low Weather Summary

 TemperatureHumidityPressure
High95 °F (Apr 18, 3:00 PM)100% (Apr 14, 6:00 AM)30.01 "Hg (Apr 14, 6:00 AM)
Low72 °F (Apr 14, 6:00 AM)44% (Apr 18, 2:00 PM)29.71 "Hg (Apr 17, 4:00 PM)
Average80 °F78%29.87 "Hg
* Reported Apr 9 10:00 PM — Apr 24 10:00 PM, Brazzaville, Weather by CustomWeather, © 2014

Note: Actual official high and low records may vary slightly from our data, if they occured in-between our weather recording intervals... More about our weather records

Advertising

Historic Weather Conditions — Data for Previous 24 hours

 ConditionsComfort  
Time TempWeatherWind HumidityBarometerVisibility
10:00 PM
Apr 24
81 °FThunderstorms. Passing clouds.3 mph79%29.89 "Hg5 mi
9:00 PM81 °FThunderstorms. Passing clouds.5 mph79%29.86 "Hg5 mi
8:00 PM84 °FThunderstorms. Passing clouds.No wind70%29.83 "Hg5 mi
7:00 PM84 °FPassing clouds.2 mph70%29.80 "Hg5 mi
6:00 PM88 °FPassing clouds.2 mph62%29.77 "HgN/A
5:00 PM90 °FPassing clouds.5 mph55%29.74 "HgN/A
4:00 PM90 °FPassing clouds.5 mph55%29.74 "HgN/A
3:00 PM88 °FPassing clouds.6 mph59%29.77 "HgN/A
2:00 PM86 °FScattered clouds.2 mph62%29.80 "HgN/A
1:00 PM84 °FScattered clouds.3 mph66%29.83 "HgN/A
12:00 PM82 °FScattered clouds.7 mph74%29.86 "HgN/A
11:00 AM82 °FScattered clouds.8 mph66%29.86 "HgN/A
10:00 AM82 °FScattered clouds.5 mph66%29.89 "HgN/A
9:00 AM79 °FPassing clouds.3 mph79%29.89 "HgN/A
8:00 AM75 °FPassing clouds.6 mph89%29.89 "HgN/A
7:00 AM75 °FPassing clouds.5 mph89%29.86 "HgN/A
6:00 AM73 °FScattered clouds.6 mph94%29.86 "Hg5 mi
5:00 AM73 °FPassing clouds.7 mph94%29.86 "Hg5 mi
4:00 AM73 °FPassing clouds.5 mph94%29.86 "Hg5 mi
3:00 AM75 °FThunderstorms. Passing clouds.5 mph89%29.86 "Hg5 mi
2:00 AM75 °FThunderstorms. Passing clouds.7 mph89%29.89 "Hg5 mi
1:00 AM75 °FThunderstorms. Passing clouds.1 mph89%29.89 "Hg5 mi
12:00 AM75 °FThunderstorms. Passing clouds.3 mph94%29.92 "Hg5 mi
Weather by CustomWeather, © 2014

See weather overview